Location: Asis
(14.1331°N, 120.9056°E)
Time: 08:25:25
(UTC+00:00)

BlueWalker 3 - Pass Details

Date: 15 January 2026
Orbit: 450 x 461 km, 53.2° (Epoch: 8 February)

Event Time Altitude Azimuth Distance (km) Brightness Sun altitude
Rises 11:19:19 0° 229° (SW) 2,446 6.6 -21.9°
Reaches altitude 10° 11:21:33 10° 238° (WSW) 1,573 5.5 -22.4°
Maximum altitude 11:24:51 37° 307° (NW) 711 2.9 -23.2°
Enters shadow 11:25:03 37° 315° (NW) 715 2.8 -23.2°
